Lid_Strength_Index
-1 1 2 3 7 7 10 8 6 6 6 4 4 5 5 4 6 8 1 0 0 0 -0 -1 -1 -1 -1 -2 -2 -2 -2 -2 -2 -2 -2 -2 -2 -2 -2 -2 -1 -1 -1 -1 -1 -1 -1 -1 -1
1 3 2 4 9 11 9 6 7 7 5 4 4 4 5 5 3 3 2 0 0 0 -0 -1 -1 -1 -1 -1 -1 -1 -2 -2 -2 -2 -2 -2 -2 -2 -1 -1 -1 -1 -1 -1 -1 -1 -1 -1 -1
0 3 6 6 9 11 10 7 7 6 4 5 5 3 4 4 2 2 1 -0 0 0 -0 -1 -1 -1 -1 -1 -1 -1 -1 -2 -2 -2 -2 -2 -2 -2 -2 -1 -1 -1 -1 -1 -1 -1 -2 -1 -1
3 5 5 9 10 7 7 6 5 6 4 4 5 5 3 2 2 1 0 -0 0 0 -0 -1 -1 -1 -1 -1 -1 -1 -1 -1 -2 -2 -2 -2 -2 -2 -2 -2 -2 -1 -1 -1 -1 -2 -2 -2 -1
3 6 8 9 8 7 6 5 5 6 5 4 4 5 4 2 1 0 0 -0 0 0 -0 -0 -1 -1 -1 -1 -1 -1 -1 -1 -1 -2 -2 -2 -2 -2 -1 -2 -1 -1 -1 -1 -1 -2 -2 -2 -1
7 7 10 10 8 6 5 4 5 5 5 4 4 5 4 1 1 1 0 0 0 0 -0 -0 -1 -1 -1 -1 -1 -1 -1 -1 -1 -1 -1 -2 -1 -1 -1 -1 -1 -1 -1 -1 -1 -1 -1 -1 -2
8 8 9 8 8 7 6 4 5 5 5 5 4 5 3 2 1 0 -0 0 0 0 0 0 -0 -1 -1 -1 -1 -1 -1 -1 -1 -1 -1 -1 -1 -1 -1 -1 -1 -1 -1 -1 -1 -1 -1 -1 -1
7 7 9 8 9 8 5 4 4 5 5 3 3 5 4 2 1 1 1 0 0 0 0 0 -0 -0 -0 -0 -1 -1 -1 -1 -1 -1 -1 -1 -1 -1 -1 -1 -1 -2 -2 -1 -1 -1 -1 -1 -2
4 9 10 8 8 7 5 5 4 3 4 3 3 3 2 1 1 1 1 1 1 1 0 0 0 0 -0 -0 -1 -1 -1 -1 -1 -1 -1 -1 -1 -1 -1 -1 -2 -2 -1 -1 -1 -1 -1 -1 -1
6 8 9 6 6 6 5 5 5 5 5 4 4 2 2 2 2 2 2 2 2 1 1 0 0 0 0 -0 -0 -0 -0 -1 -1 -1 -1 -1 -1 -1 -1 -1 -2 -2 -2 -1 -1 -1 -1 -1 -0
6 8 6 5 5 4 5 5 4 5 6 4 5 4 2 2 2 2 2 2 2 1 0 0 0 0 0 0 -0 -0 -0 -0 -0 -0 -1 -1 -1 -1 -1 -1 -0 -1 -1 -0 -1 -1 -0 -0 -0
7 6 5 5 4 4 5 4 5 5 5 3 3 2 2 2 2 2 2 2 1 1 1 -0 0 0 0 0 0 0 0 0 0 -0 -1 -0 0 -0 -0 -0 -0 -0 -0 -0 -0 -0 -0 -0 -0
6 6 5 4 4 4 4 5 5 5 3 3 3 3 3 3 2 2 2 1 1 1 1 -0 0 1 0 0 0 0 0 0 0 -0 -0 -0 0 0 -0 0 -0 -0 -1 -0 0 0 0 0 0
5 5 5 5 5 4 5 5 5 4 3 3 3 3 3 3 2 2 2 2 1 0 1 0 1 1 0 1 0 0 0 0 -0 -0 -0 -0 -0 0 0 0 0 -0 -1 -0 -0 0 0 0 0
6 7 6 5 5 5 4 7 6 4 3 4 4 3 3 3 2 2 2 2 0 1 0 1 1 1 1 1 0 0 0 -0 0 -0 -0 -0 -0 -0 -0 0 0 -0 -1 -0 -0 0 0 0 0
7 7 9 6 5 5 5 9 5 4 4 4 4 4 3 3 2 2 1 -0 -1 0 1 1 0 1 1 1 1 0 0 0 0 -0 -0 -0 -0 -1 -0 0 0 -0 -0 0 0 1 1 1 1
8 10 9 8 5 6 6 8 5 4 4 5 4 4 3 3 3 2 1 1 1 1 1 1 1 1 1 1 0 0 0 0 -0 -0 -0 -0 -0 -0 0 0 0 -0 0 0 0 1 1 1 1
10 10 9 9 7 6 7 7 6 4 5 5 5 4 4 3 3 2 1 1 1 1 1 1 1 1 1 1 1 1 0 0 -0 -0 -0 -0 -0 -0 0 0 0 -0 1 1 1 1 1 1 1
8 8 9 8 6 7 7 7 6 5 5 5 5 4 4 4 3 2 2 1 1 1 2 1 2 1 1 2 2 2 2 1 0 0 -0 -0 -1 -1 -0 0 0 0 1 1 1 1 2 2 1
9 9 9 7 6 7 7 8 6 5 5 5 5 5 4 4 3 3 2 1 2 2 2 2 2 1 1 1 1 1 1 1 1 0 0 -0 -0 -0 0 0 0 0 1 1 1 1 2 2 1
9 9 9 9 7 7 7 9 8 6 5 5 4 4 4 4 4 3 3 2 2 2 2 2 2 1 1 1 1 1 1 1 1 1 1 0 -0 -0 -0 -0 0 0 0 1 1 1 2 3 2
10 8 8 8 9 12 7 13 9 7 7 6 5 4 4 4 3 3 3 3 3 2 2 2 1 1 1 1 1 2 2 3 2 1 1 1 -0 -0 -0 -0 -0 0 0 1 1 1 1 2 3
9 6 7 8 9 9 9 12 10 7 8 7 5 5 4 4 3 3 3 3 2 2 2 2 2 1 1 1 1 2 2 2 1 1 1 1 0 -0 -1 -0 -0 0 0 0 1 1 1 1 2
6 7 8 8 9 13 10 11 11 9 8 7 5 4 4 3 3 3 3 3 3 2 2 2 2 2 1 1 1 1 1 2 2 1 2 1 1 0 -0 -0 0 0 0 1 0 1 1 1 1
7 9 13 14 14 15 9 11 10 7 6 6 5 5 4 4 4 4 4 4 3 3 3 2 2 2 1 1 1 1 1 1 1 1 2 2 1 1 0 0 0 0 0 0 0 1 1 1 1
8 9 12 16 15 13 9 13 10 6 5 5 4 4 4 4 4 4 4 4 3 3 3 2 2 2 2 1 1 1 1 1 1 1 1 1 1 1 0 0 0 -0 0 0 0 1 1 1 1
9 11 8 11 10 12 11 9 7 6 6 5 5 4 5 4 4 4 4 3 3 3 3 2 2 2 2 2 1 1 1 1 1 1 1 1 1 1 0 0 0 0 0 0 0 1 1 1 1
8 7 11 10 15 16 12 11 11 8 7 6 5 5 5 5 4 4 4 4 3 3 2 2 2 2 2 1 1 1 1 1 1 0 0 1 1 0 0 1 0 0 1 0 0 1 1 1 1
9 10 9 9 10 14 15 12 7 7 6 6 5 5 5 5 5 4 4 3 3 2 2 2 2 2 2 1 1 1 1 1 1 1 1 1 0 0 0 0 1 1 1 1 1 1 1 1 1
7 9 9 12 13 11 12 12 6 6 5 5 6 6 5 5 4 4 4 3 3 3 2 2 2 2 2 1 1 1 1 1 1 1 1 0 1 0 0 0 1 1 1 1 1 1 1 1 2